Regional Weather Roundup
Issued by NWS Portland, ME

Current Version | Previous Version | Text Only | Print | Product List | Glossary Off
Versions: 1 2 3 4 5 6 7 8 9 10 11 12 13 14 15 16 17 18 19 20 21 22 23 24 25 26 27 28 29 30 31 32 33 34 35 36 37 38 39 40 41 42 43 44 45 46 47 48 49 50
000 ASUS41 KGYX 221110 RWRGYX WEATHER ROUNDUP FOR MAINE AND NEW HAMPSHIRE NATIONAL WEATHER SERVICE GRAY ME 700 AM EDT THU JUN 22 2017 MEZ002-005-006-010-012-015-018-020-021-024-026-027-029-221200- MAINE CITY SKY/WX TMP DP RH WIND PRES REMARKS PORTLAND SUNNY 63 54 72 W3 29.93R SANFORD SUNNY 64 56 75 W6 29.95R BAR HARBOR SUNNY 62 52 69 W8 29.90R WISCASSET SUNNY 65 55 70 W5 29.93R ROCKLAND SUNNY 61 56 83 W6 29.91R FRYEBURG SUNNY 62 54 74 CALM 29.94R LEWISTONAUBURN SUNNY 59 54 83 CALM 29.94R AUGUSTA SUNNY 63 52 67 W6 29.92R WATERVILLE SUNNY 62 56 80 SW5 29.89R BANGOR SUNNY 60 52 74 W7 29.89R GREENVILLE N/A 59 49 69 VRB3 29.87R MILLINOCKET SUNNY 59 52 77 E3 29.86R HOULTON SUNNY 59 53 80 VRB5 29.79S PRESQUE ISLE SUNNY 57 50 77 W10 29.78S FRENCHVILLE SUNNY 54 47 77 W13 29.75R CARIBOU SUNNY 58 50 75 SW6 29.76R $$ NHZ002-005-008-009-011-012-014-221200- NEW HAMPSHIRE CITY SKY/WX TMP DP RH WIND PRES REMARKS PORTSMOUTH SUNNY 64 55 73 SW7 29.95R ROCHESTER SUNNY 65 53 65 VRB3 29.94R NASHUA SUNNY 62 55 77 CALM 29.99R MANCHESTER SUNNY 63 50 62 CALM 29.97R CONCORD SUNNY 59 56 89 CALM 29.97R LACONIA SUNNY N/A N/A N/A W6 29.97R PLYMOUTH FAIR 58 53 84 CALM 29.96S BERLIN SUNNY 53 50 89 CALM 29.95S WHITEFIELD SUNNY 54 50 86 CALM 29.97S JAFFREY SUNNY 58 53 84 S5 30.01R KEENE SUNNY 54 52 93 CALM 30.01R LEBANON SUNNY 56 53 90 S5 29.98R MT WASHINGTON FOG 39 39 100 NW37 N/A VSB 3/16 $$ VTZ005-007-008-221200- VERMONT CITY SKY/WX TMP DP RH WIND PRES REMARKS ST JOHNSBURY N/A 51 51 100 MISG 29.95S MONTPELIER SUNNY 56 53 90 CALM 30.00 BURLINGTON MOSUNNY 60 55 83 SE3 29.95S $$ MAZ007-012-024-CTZ003-RIZ002-NYZ038-NYZ072-221200- SOUTHERN NEW ENGLAND AND NY CITY SKY/WX TMP DP RH WIND PRES REMARKS BOSTON MOSUNNY 68 52 56 W5 29.97R WORCESTER SUNNY 61 48 62 W9 30.00R NANTUCKET SUNNY 67 59 75 NW10 29.97R PROVIDENCE MOSUNNY 65 55 70 NW7 29.99R HARTFORD MOSUNNY 64 53 67 CALM 30.01R ALBANY SUNNY 61 53 75 CALM 30.01S NEW YORK CITY PTSUNNY 70 56 61 NE3 30.01R $$ ANZ081-ANZ082-ANZ150-NHZ014-MEZ023>029-221200- COASTAL MARINE OBSERVATIONS STATION/POSITION TIME TEMP WIND PRES WAVE AIR SEA DIR/SP/G HT/PER (UTC) (F) (DEG/KT/KT) (MB) (FT/S) MATINICUS ROCK 1000 62 290/ 9/ 9 1011.9R ISLE OF SHOALS 1000 61 290/ 7/ 7 1013.5R JEFFREYS LEDGE 1006 59 N/A 2/ 7 CASHES LEDGE BUO 0950 61 57 1012.9 3/ 7 GEORGES BANK BUO 0950 54 53 1013.0 4/ 7 $$ .............KEY.............. WCI - WIND CHILL TC - TEMPERATURE IN CELSIUS VSB - VISIBILITY IN MILES HX - HEAT INDEX FAIR- INDICATES FEW OR NO CLOUDS BELOW 12,000 FT, WITH NO SIGNIFICANT WEATHER AND/OR OBSTRUCTIONS TO VISIBILITY.

USA.gov is the U.S. government's official web portal to all federal, state and local government web resources and services.